sat.trackr.live / text

‹ back to catalog

STARLINK-30279

NORAD 57885 · 2023-144X

PAYLOAD ACTIVE UNKNOWN

§ Identity

Operator
Country
US
Launch date
2023-09-16
Launch site
AFETR
Launch vehicle
Mass (kg)
RCS (m²)

Purposes: comms

External: N2YO · Heavens-Above · Gunter

§ Orbital elements

Epoch: 2026-09-20T08:38:39.207264Z

Period
94.27 min
Inclination
43.0012°
Eccentricity
0.0001215
Mean motion
15.27576917 rev/d
Perigee alt
482.2 km
Apogee alt
483.9 km
Semi-major
6,861.2 km
B*
1.7636e-5
RAAN
265.4737°
Arg perigee
272.2714°
Mean anomaly
87.7999°
Rev number
16,735

§ Raw data

STARLINK-302791 57885U 23144X   26263.36017601  .00000223  00000+0  17636-4 0  99932 57885  43.0012 265.4737 0001215 272.2714  87.7999 15.27576917167354

JSON: /api/v1/satellites/57885 · /tle

For live sub-satellite position, see the globe view (requires WebGL).

§ Visibility from observer

Set your observer location to see the next 7 days of passes ≥ 10°. The values pass through the URL so the page stays shareable.

No JS? Fill the form by hand. The geolocation button needs JavaScript.